Location: Hertford
(51.8000°N, 0.0667°W)
Time: 17:26:59
(UTC+00:00)

Cosmos 1626 - Pass Details

Date: 18 September 2020
Orbit: 490 x 495 km, 82.5° (Epoch: 31 October)

Event Time Altitude Azimuth Distance (km) Brightness Sun altitude
Rises 20:11:55 0° 353° (N) 2,594 6.3 -19.3°
Reaches altitude 10° 20:14:05 10° 358° (N) 1,705 5.2 -19.6°
Enters shadow 20:17:29 50° 60° (ENE) 637 2.4 -20.0°
